Temperature
25 24 23 23 21 21 20 20 20 20 19 19 19 19 19 19 19 19 18 18 18 18 18 18 18 18 18 18 18 18 18 18 18 18 18 18 18 18 18 18 18 18 18
25 24 23 22 22 21 20 20 20 19 19 19 19 19 19 19 19 19 19 18 18 18 18 18 18 18 18 18 18 18 18 18 18 18 18 18 18 18 18 18 18 18 18
25 24 23 23 22 21 20 20 20 19 19 19 19 19 19 19 19 19 18 18 18 18 18 18 18 18 18 18 18 18 18 18 18 18 18 18 18 18 18 18 18 18 18
26 24 23 23 22 21 20 20 20 19 19 19 19 19 18 18 18 18 18 18 18 18 18 18 18 18 18 18 18 18 18 18 18 18 18 18 18 18 18 18 18 18 18
26 25 24 23 22 21 21 20 19 19 19 19 19 18 18 18 18 18 18 18 18 18 18 17 18 18 17 18 18 18 18 18 18 18 18 18 18 18 18 18 18 18 18
26 25 24 23 22 22 21 20 20 19 19 19 18 18 18 18 18 18 18 18 18 18 17 17 17 17 17 17 17 17 17 18 18 18 18 18 18 18 18 18 18 18 18
27 25 24 23 23 22 21 20 20 19 19 19 18 18 18 18 18 18 18 18 18 17 17 17 17 17 17 17 17 17 17 17 17 18 18 18 18 18 18 18 17 17 17
26 25 24 24 23 22 21 20 20 19 19 19 18 18 18 18 18 18 17 17 17 17 17 17 17 17 17 17 17 17 17 17 17 17 17 17 17 17 17 17 17 17 17
27 25 24 24 23 22 21 21 20 19 19 19 18 18 18 18 17 17 17 17 18 17 17 17 17 17 17 17 17 17 17 17 17 17 17 17 17 17 17 17 17 17 16
27 26 25 24 23 22 21 21 20 19 19 18 18 18 18 18 18 17 17 17 17 17 17 17 17 17 17 17 17 16 16 16 17 17 16 16 16 16 16 17 17 17 17
27 26 24 24 23 22 21 21 20 19 19 18 18 18 18 17 17 17 17 17 17 17 17 16 16 16 16 16 16 16 16 16 16 16 16 16 16 16 16 16 16 16 16
26 25 24 24 23 22 22 21 20 19 19 18 18 18 18 17 17 17 17 17 17 17 16 16 16 16 16 16 16 16 16 16 16 16 16 16 16 16 16 16 16 16 16
26 25 24 23 22 22 21 21 20 19 19 18 18 18 17 17 17 17 17 17 16 16 16 16 16 16 16 16 16 16 16 16 15 15 15 15 15 15 15 15 15 15 15
25 24 23 22 22 21 21 20 20 19 19 18 18 17 17 17 17 17 16 16 16 16 16 16 16 16 16 16 16 16 15 15 15 15 15 15 15 15 15 15 15 15 15
25 23 23 22 21 21 20 20 19 19 19 18 18 17 17 17 17 16 16 16 16 16 16 16 16 16 15 16 16 15 15 15 15 15 15 15 15 15 14 14 14 14 14
24 23 22 21 21 20 20 19 19 19 18 18 18 17 17 17 16 16 16 16 16 16 15 15 15 15 15 15 15 15 15 15 14 14 14 14 14 14 14 14 14 14 14
24 23 22 21 21 20 20 19 19 18 18 17 17 17 17 16 16 16 16 16 16 15 15 15 15 15 15 15 15 15 15 15 14 14 14 14 14 14 14 14 14 14 14
23 23 22 21 20 20 19 19 18 18 17 17 17 17 16 16 16 16 16 16 16 15 15 15 15 15 15 15 15 15 15 14 14 14 14 14 14 14 14 14 14 14 14
22 22 22 21 20 20 19 18 18 18 17 17 16 16 16 16 16 16 16 15 15 15 15 15 15 14 15 15 15 14 14 14 14 14 14 14 13 13 13 13 13 13 14
22 21 21 21 20 19 19 18 18 17 17 17 16 16 16 16 16 15 15 15 15 15 15 15 15 15 15 15 14 14 14 14 14 13 13 13 13 13 13 13 13 13 13
21 21 20 20 19 19 18 18 17 17 17 16 16 16 16 16 15 15 15 15 15 15 15 15 14 14 14 14 14 14 14 14 13 13 13 13 13 13 13 13 13 13 13
20 20 20 19 19 18 18 17 17 17 16 16 16 16 15 15 15 15 15 15 14 14 14 14 14 14 14 14 14 14 14 13 13 13 13 13 13 13 13 13 13 13 13
19 19 19 19 18 18 18 17 17 17 16 16 16 15 15 15 15 15 15 14 14 14 14 14 14 14 14 14 14 14 13 13 13 13 13 13 13 13 13 13 13 13 13
19 18 18 18 17 17 17 17 16 16 16 16 15 15 15 15 15 15 14 14 14 14 14 14 14 14 14 14 14 13 13 13 13 13 13 13 13 12 12 12 12 12 12
18 18 18 17 17 17 16 16 16 16 16 15 15 15 15 15 15 14 14 14 14 14 14 14 14 14 13 13 13 13 13 13 13 12 12 12 12 12 12 12 12 12 12
18 17 17 17 16 16 16 16 16 16 15 15 15 15 15 14 14 14 14 14 14 14 14 14 14 14 13 13 13 13 13 13 12 12 12 12 12 12 12 12 12 12 12
Wind_Speed
12 11 10 10 10 8 7 6 5 5 4 3 2 2 1 2 2 2 2 2 2 2 1 1 1 1 1 1 0 0 1 1 0 0 1 1 2 2 2 2 2 2 3
12 11 10 10 10 9 8 7 6 6 5 4 3 2 2 1 1 1 2 2 2 1 2 0 1 1 2 1 1 1 1 1 1 0 1 1 0 1 2 3 3 2 2
12 12 11 10 10 9 9 7 6 6 5 4 4 2 2 1 1 1 2 2 2 2 1 0 1 0 1 1 2 2 2 2 2 1 1 0 0 1 0 2 3 3 2
13 13 12 10 10 10 10 8 7 6 5 4 4 4 3 2 2 1 2 2 2 2 1 0 0 1 0 0 2 2 1 2 2 1 1 1 1 1 1 0 1 3 2
13 13 12 11 10 10 10 9 8 7 6 5 4 3 3 2 2 2 2 2 2 2 1 1 1 1 1 1 2 0 1 2 2 2 1 1 1 2 2 1 1 1 2
13 13 12 10 9 9 9 9 9 8 7 6 5 4 3 2 1 1 1 2 2 2 1 1 1 1 1 2 2 2 2 2 2 2 2 2 1 1 1 1 1 1 1
12 12 12 11 9 9 8 9 9 9 8 7 5 5 4 3 2 2 2 2 2 2 2 2 1 2 2 2 2 2 2 2 2 2 3 2 2 2 1 1 1 1 1
11 11 10 9 8 9 9 8 9 9 8 7 5 4 3 3 3 3 2 2 2 2 3 2 2 2 2 2 1 2 2 2 2 3 2 2 2 2 1 1 1 1 1
10 11 10 9 9 8 8 9 8 8 8 7 6 5 4 3 2 2 3 2 1 1 1 1 1 1 1 2 1 2 2 1 2 2 2 2 2 2 2 2 2 2 2
9 10 9 8 9 9 8 8 8 7 6 6 6 6 4 3 2 2 2 1 1 1 0 1 1 1 1 1 2 2 2 2 2 2 2 2 3 2 2 2 2 2 2
8 9 8 8 8 8 8 8 8 7 6 6 5 4 5 4 4 3 2 1 1 1 1 1 2 2 2 2 2 3 2 2 3 3 2 2 3 2 2 2 2 1 1
7 7 7 7 6 6 7 6 6 6 6 5 4 5 4 4 5 4 3 2 2 2 2 2 2 3 2 2 2 3 3 2 3 3 2 2 3 2 2 2 2 2 2
7 8 7 6 5 5 5 6 5 5 5 5 5 4 4 4 4 3 3 2 2 2 3 3 3 3 2 3 2 2 3 3 3 3 3 3 3 3 2 2 2 2 3
6 6 6 6 5 4 4 4 5 5 5 5 4 3 3 2 2 2 2 2 2 3 3 3 3 3 3 2 2 2 3 3 2 3 3 3 3 3 3 3 3 3 3
6 5 5 6 5 4 4 4 3 4 4 5 4 4 3 2 2 2 3 2 3 4 3 3 3 3 3 3 2 3 3 2 3 3 3 3 3 3 3 4 3 3 3
5 5 5 6 6 5 4 4 3 3 3 4 4 3 3 2 2 3 3 3 3 3 3 3 3 4 4 2 1 2 3 3 4 4 3 3 2 2 3 4 4 4 5
4 4 4 4 5 5 5 4 4 3 3 3 3 3 2 3 3 3 3 3 3 3 3 3 3 4 3 2 2 2 3 4 4 4 3 4 3 2 2 4 5 5 6
2 3 3 4 4 4 5 4 4 4 3 3 3 3 3 3 3 3 3 3 3 3 4 4 4 4 4 4 3 3 4 4 4 4 4 3 3 3 3 4 4 4 5
2 1 2 3 3 3 4 4 4 4 3 3 3 3 3 3 3 3 3 4 4 4 4 4 4 4 4 5 4 3 3 4 4 5 3 3 3 3 3 4 4 4 5
3 2 1 3 3 3 4 4 4 4 4 3 3 2 3 3 4 3 4 4 4 4 5 5 4 5 4 6 6 5 3 3 3 3 2 3 3 3 3 3 3 4 4
3 2 1 1 2 3 3 3 3 3 3 3 3 3 3 4 4 4 4 4 4 5 5 5 5 5 5 6 7 7 4 3 3 3 2 1 2 3 4 4 4 5 5
3 2 1 1 1 2 2 2 3 2 2 2 3 3 4 5 5 3 4 4 5 6 6 5 6 5 4 5 7 9 7 5 4 3 3 2 2 4 5 5 5 6 4
1 1 1 1 1 1 2 3 2 1 2 2 3 4 4 4 4 4 5 5 5 6 5 5 5 4 3 3 6 7 8 7 4 3 4 4 5 5 5 7 7 5 4
0 1 1 1 1 1 2 2 2 2 2 3 3 3 4 5 4 4 4 4 4 5 4 4 4 3 2 2 2 2 2 3 2 2 3 4 6 6 6 5 5 5 4
1 1 2 2 2 2 2 2 2 2 3 4 4 5 5 5 3 3 3 4 3 3 4 4 3 3 3 2 3 2 2 1 1 2 3 3 3 3 3 4 4 4 4
2 2 2 3 2 3 3 2 2 3 4 4 5 5 5 4 4 4 3 1 2 3 4 4 4 3 3 4 4 3 4 4 4 2 3 4 4 4 4 3 3 3 3
Wind_Direction
161 156 158 154 147 145 147 153 159 157 160 162 178 173 168 156 143 145 133 156 177 190 218 283 150 141 115 104 105 47 264 251 157 308 317 252 179 150 149 142 144 143 145
160 156 161 159 160 159 160 161 167 166 170 171 174 179 168 174 150 138 135 173 187 222 205 236 239 144 141 157 203 187 271 274 177 212 301 306 99 261 169 152 158 146 138
166 165 169 166 166 165 165 169 168 166 174 171 172 167 161 184 168 167 157 182 185 198 261 153 306 283 170 165 200 246 228 259 240 192 182 179 218 292 158 157 141 142 148
167 167 168 171 172 169 168 163 163 161 165 171 172 173 173 184 184 176 166 178 192 194 175 149 338 319 335 179 232 202 264 258 274 234 224 202 176 221 230 243 156 161 163
165 164 168 172 174 169 167 164 161 164 166 173 175 178 191 197 187 170 166 177 184 183 166 148 181 257 278 255 268 289 263 276 286 288 276 227 223 232 226 231 199 195 170
162 163 166 166 170 167 165 164 160 161 164 171 175 184 202 202 171 160 173 202 191 188 197 186 192 237 247 255 268 269 246 272 300 305 303 292 280 254 235 241 248 226 197
163 163 164 165 164 165 165 166 165 165 170 175 179 189 198 190 187 205 205 222 217 186 184 213 197 241 244 240 248 242 244 249 262 279 287 294 296 299 268 235 262 297 299
159 155 152 152 160 168 166 163 162 165 170 173 178 184 183 201 202 207 224 225 234 196 183 190 197 239 256 254 232 261 248 241 256 263 271 282 287 293 284 247 227 258 287
153 149 154 155 159 164 161 161 157 162 172 175 174 178 185 210 218 213 230 236 241 241 149 157 196 233 251 279 265 263 276 272 268 277 270 272 277 277 287 278 240 228 256
144 145 152 157 161 162 155 152 156 162 167 173 184 187 186 199 207 226 228 245 235 271 180 205 211 229 247 271 272 267 262 259 269 278 279 277 285 286 270 275 283 267 242
147 146 148 150 153 152 153 155 155 157 169 178 179 182 186 199 207 215 218 236 243 219 193 208 226 221 226 241 257 275 276 263 271 276 269 273 280 292 295 283 283 271 232
134 135 137 142 147 152 153 153 156 165 172 169 172 191 189 194 204 208 207 210 235 239 210 215 238 244 235 239 245 262 280 269 267 270 271 267 275 278 288 285 274 268 243
132 134 134 131 135 139 147 151 158 166 166 163 170 178 190 199 209 213 213 209 222 241 240 230 231 243 249 247 251 251 267 267 270 273 266 260 266 268 275 277 268 266 260
127 131 131 124 122 124 127 142 163 163 162 160 167 165 187 207 212 217 219 221 225 237 242 242 240 237 241 246 249 255 254 257 267 273 268 262 256 252 254 259 255 253 262
128 123 136 133 134 136 139 144 157 160 166 164 171 178 188 201 217 220 219 219 231 238 240 245 249 248 236 239 236 253 257 264 265 267 269 265 258 249 250 260 257 258 257
134 147 150 147 153 153 149 151 159 162 158 165 178 172 182 197 215 232 226 211 220 238 242 240 247 255 256 236 221 249 272 264 261 265 270 268 239 229 235 266 263 253 247
144 156 152 153 156 161 152 156 158 157 161 171 176 174 196 214 226 243 229 220 224 223 230 237 239 238 236 208 219 240 266 266 262 262 263 270 265 234 248 251 253 255 251
102 136 162 162 160 165 163 157 161 159 172 180 179 183 205 218 224 240 236 228 232 235 239 237 234 237 226 208 218 229 252 261 262 259 246 247 262 264 264 262 258 257 255
94 134 169 169 163 164 160 165 175 178 191 199 200 208 218 231 230 236 237 231 234 238 239 236 233 236 221 210 208 210 253 256 264 263 249 231 242 255 258 253 258 267 271
54 49 126 164 155 157 165 182 199 194 206 213 219 220 219 233 241 239 251 246 241 242 248 246 239 240 229 211 207 204 239 257 271 270 246 234 242 247 252 252 260 267 274
55 40 48 120 132 142 161 191 208 212 219 216 218 221 225 234 237 234 240 245 241 246 246 249 245 240 230 209 205 201 226 253 266 272 270 263 237 243 247 248 252 257 274
58 29 19 67 120 157 181 210 215 212 208 213 223 228 235 248 247 239 241 237 234 240 242 243 245 238 211 203 202 200 216 242 261 265 272 282 275 261 254 252 250 262 271
36 340 341 16 90 175 198 222 222 211 214 224 233 235 239 246 242 232 242 238 232 238 239 234 234 227 195 186 192 203 221 234 243 264 278 286 275 271 259 250 248 250 250
285 297 291 285 252 248 251 231 212 201 218 239 244 239 235 236 238 235 237 238 236 237 241 241 242 231 192 181 175 211 216 214 232 283 297 273 260 262 259 257 247 235 235
291 290 284 276 262 256 261 253 229 228 236 244 246 246 242 238 231 234 253 255 252 239 241 247 245 236 226 193 185 211 227 208 210 279 282 267 256 250 245 239 239 240 232
293 299 289 268 257 250 252 251 237 243 246 249 252 253 244 237 231 225 240 291 245 213 209 210 209 224 202 188 190 200 211 211 208 232 260 263 253 252 256 253 248 245 244
Height
1501 1504 1506 1509 1511 1512 1513 1515 1516 1517 1518 1519 1520 1521 1522 1523 1524 1524 1524 1525 1526 1526 1527 1527 1528 1528 1528 1528 1528 1529 1529 1530 1530 1530 1530 1530 1531 1531 1531 1532 1533 1533 1534
1499 1502 1505 1507 1509 1510 1512 1513 1514 1515 1516 1517 1519 1520 1521 1522 1523 1523 1523 1524 1525 1525 1526 1526 1527 1527 1528 1528 1528 1528 1529 1529 1530 1530 1530 1530 1532 1531 1531 1531 1532 1533 1533
1496 1499 1502 1505 1507 1508 1510 1511 1512 1513 1515 1516 1518 1519 1520 1521 1522 1522 1522 1523 1524 1524 1525 1525 1526 1526 1527 1527 1527 1527 1528 1528 1529 1530 1530 1530 1530 1530 1531 1531 1531 1532 1532
1492 1496 1500 1503 1505 1506 1508 1509 1510 1512 1513 1515 1516 1517 1518 1519 1520 1521 1521 1522 1522 1523 1524 1524 1525 1525 1526 1526 1526 1527 1527 1528 1528 1529 1529 1530 1530 1530 1531 1531 1531 1531 1531
1488 1493 1496 1500 1502 1504 1506 1507 1508 1510 1511 1513 1514 1516 1517 1518 1519 1520 1521 1521 1521 1522 1522 1523 1523 1524 1524 1525 1525 1526 1526 1526 1527 1527 1528 1529 1529 1529 1529 1529 1530 1530 1530
1485 1490 1494 1498 1501 1503 1504 1505 1506 1508 1510 1511 1513 1514 1516 1517 1518 1518 1519 1520 1520 1520 1521 1521 1522 1522 1523 1523 1524 1524 1524 1525 1525 1526 1526 1527 1527 1527 1528 1528 1528 1528 1528
1483 1487 1492 1495 1498 1500 1502 1503 1504 1506 1508 1510 1511 1513 1514 1515 1516 1517 1518 1519 1519 1519 1519 1520 1520 1521 1521 1521 1522 1522 1523 1523 1523 1524 1524 1525 1525 1526 1526 1526 1526 1526 1526
1481 1485 1489 1493 1496 1498 1500 1501 1502 1504 1506 1508 1510 1512 1513 1514 1515 1515 1516 1517 1518 1518 1518 1518 1518 1519 1519 1520 1520 1520 1521 1521 1522 1522 1522 1523 1523 1524 1524 1524 1525 1524 1524
1480 1484 1488 1491 1494 1496 1498 1500 1501 1503 1505 1507 1508 1510 1511 1512 1513 1514 1515 1515 1516 1516 1516 1516 1516 1517 1517 1518 1518 1518 1519 1519 1520 1520 1520 1520 1521 1521 1522 1522 1522 1523 1522
1478 1482 1486 1488 1491 1494 1496 1499 1501 1502 1504 1505 1507 1508 1509 1510 1511 1512 1513 1513 1514 1514 1514 1514 1514 1515 1515 1516 1516 1516 1517 1517 1517 1517 1518 1518 1518 1518 1519 1519 1519 1520 1520
1477 1481 1484 1487 1490 1492 1495 1497 1499 1500 1502 1504 1505 1506 1507 1508 1509 1509 1510 1511 1512 1512 1512 1512 1512 1513 1513 1513 1514 1514 1514 1514 1514 1515 1515 1515 1515 1515 1515 1516 1516 1516 1517
1477 1480 1483 1486 1489 1491 1493 1495 1497 1499 1500 1501 1502 1504 1505 1506 1506 1507 1508 1508 1509 1509 1510 1510 1510 1510 1511 1511 1511 1511 1512 1512 1512 1512 1512 1511 1512 1512 1512 1512 1513 1513 1514
1477 1480 1483 1485 1488 1490 1492 1494 1495 1497 1498 1499 1500 1502 1503 1504 1504 1505 1505 1506 1506 1506 1507 1507 1508 1508 1508 1508 1508 1508 1509 1509 1509 1509 1509 1508 1508 1508 1508 1509 1509 1510 1511
1477 1479 1482 1484 1486 1489 1491 1492 1494 1496 1497 1497 1498 1499 1500 1501 1502 1502 1502 1503 1503 1503 1504 1504 1505 1505 1505 1506 1506 1506 1506 1505 1505 1505 1505 1505 1505 1505 1505 1505 1506 1506 1507
1476 1480 1482 1484 1486 1488 1490 1491 1493 1494 1495 1496 1496 1497 1498 1499 1499 1499 1500 1500 1500 1501 1501 1501 1502 1502 1502 1503 1503 1503 1503 1502 1502 1502 1502 1502 1502 1502 1502 1502 1502 1503 1503
1475 1479 1481 1482 1484 1486 1488 1489 1491 1492 1494 1494 1495 1495 1496 1496 1496 1497 1497 1497 1497 1497 1498 1498 1498 1499 1500 1500 1500 1499 1499 1499 1499 1499 1499 1499 1499 1498 1499 1499 1499 1500 1500
1476 1477 1479 1481 1483 1484 1486 1487 1489 1491 1492 1492 1493 1493 1494 1494 1494 1494 1494 1494 1494 1494 1494 1494 1495 1495 1496 1496 1496 1496 1496 1496 1496 1496 1495 1496 1496 1496 1495 1495 1495 1496 1497
1475 1476 1478 1480 1482 1483 1485 1486 1487 1489 1489 1490 1491 1491 1491 1491 1491 1491 1491 1491 1491 1491 1491 1491 1491 1491 1492 1492 1493 1493 1493 1492 1492 1492 1492 1492 1492 1492 1492 1492 1492 1492 1493
1474 1476 1477 1479 1480 1482 1483 1484 1486 1486 1487 1488 1488 1489 1489 1489 1489 1489 1488 1488 1488 1489 1489 1488 1488 1488 1488 1489 1489 1490 1490 1489 1489 1489 1489 1489 1489 1489 1489 1489 1488 1488 1489
1473 1474 1476 1477 1478 1480 1481 1482 1483 1484 1485 1485 1486 1486 1486 1486 1486 1486 1486 1486 1486 1485 1486 1485 1486 1486 1486 1486 1486 1487 1487 1486 1486 1486 1486 1486 1486 1486 1486 1485 1485 1484 1485
1473 1474 1475 1476 1477 1478 1479 1480 1481 1481 1482 1483 1483 1483 1483 1483 1483 1483 1482 1482 1482 1482 1483 1482 1482 1482 1483 1483 1484 1484 1484 1484 1483 1483 1483 1483 1483 1482 1482 1482 1482 1481 1482
1472 1473 1474 1475 1476 1476 1477 1478 1478 1479 1480 1480 1480 1479 1479 1480 1480 1479 1479 1479 1479 1479 1479 1479 1479 1479 1479 1480 1480 1480 1480 1480 1480 1480 1480 1480 1480 1479 1479 1478 1478 1478 1478
1472 1473 1473 1474 1474 1475 1475 1475 1476 1476 1476 1477 1476 1476 1476 1476 1476 1476 1476 1476 1476 1476 1476 1476 1476 1476 1476 1477 1477 1477 1477 1477 1477 1477 1477 1476 1476 1475 1475 1475 1475 1475 1474
1471 1472 1472 1472 1472 1472 1473 1473 1473 1473 1473 1473 1473 1473 1473 1472 1473 1472 1472 1472 1472 1472 1472 1472 1472 1473 1473 1473 1473 1473 1473 1474 1474 1473 1473 1473 1472 1472 1471 1471 1471 1471 1471
1468 1469 1470 1470 1470 1470 1470 1470 1470 1470 1470 1470 1470 1470 1469 1469 1469 1469 1469 1468 1468 1469 1469 1469 1469 1469 1469 1469 1470 1470 1470 1470 1470 1470 1470 1469 1469 1468 1468 1468 1468 1468 1468
1466 1466 1467 1467 1467 1466 1466 1467 1467 1467 1466 1466 1466 1466 1466 1466 1465 1465 1465 1464 1464 1464 1465 1465 1465 1465 1466 1466 1466 1467 1467 1467 1467 1467 1466 1466 1466 1465 1465 1465 1465 1465 1465